Weather Search – Historical Data

Quick picks

Today Yesterday Last 7 days Last 30 days This month Last month Last year (same date) All of last year

Custom search

Database contains data from 2013-07-07 to 2026-09-02.

Wednesday September 2, 2026

92 measurements (5-min interval)

Max temperature
12,6 °C
00:00
Min temperature
10,8 °C
07:20
Avg temperature
11,6 °C
Total rainfall
2,8 mm
Max wind gust
4,0 m/s
SW · 03:15
Avg wind
0,6 m/s
Avg humidity
93 %
Avg pressure
1 005 hPa
Max UV index
0,0
00:00
Max solar radiation
41 W/m²
07:35
Avg radiation (daytime)
14 W/m²

Charts

Temperature and dew point
Wind and gusts
Wind rose · prevailing: SW
Rainfall
Humidity
Air pressure
UV and solar radiation

Detailed data

TimeTemp °CDew °C Humid %Wind m/sGust m/s Dir °Rain mmPress. hPa UVSolar W/m²
00:00 12,611,7 940,0 0,4 0,001 005,1 0,00
00:05 12,511,6 940,4 1,3225 0,001 005,1 0,00
00:10 12,411,5 940,9 1,8225 0,001 005,1 0,00
00:15 12,411,3 930,9 3,6248 0,001 005,2 0,00
00:20 12,411,3 930,9 3,6248 0,001 005,2 0,00
00:25 12,311,2 930,9 2,2180 0,001 005,2 0,00
00:30 12,211,1 930,9 3,6225 0,001 005,2 0,00
00:35 12,110,8 920,4 1,3225 0,001 005,2 0,00
00:40 12,110,8 920,4 1,3225 0,001 005,2 0,00
00:45 11,910,7 920,0 0,9 0,001 005,2 0,00
00:50 11,910,6 920,4 1,3225 0,001 005,2 0,00
00:55 11,910,7 920,4 0,9225 0,001 005,2 0,00
01:00 11,910,6 920,4 1,8225 0,001 005,3 0,00
01:05 11,810,6 920,4 3,1225 0,001 005,3 0,00
01:10 11,810,5 920,9 1,8225 0,001 005,3 0,00
01:15 11,710,5 920,0 0,9 0,001 005,5 0,00
01:20 11,610,3 920,4 1,3225 0,001 005,5 0,00
01:25 11,410,2 920,4 1,3225 0,001 005,5 0,00
01:30 11,410,3 930,0 0,9 0,001 005,6 0,00
01:35 11,410,3 930,0 0,9 0,001 005,6 0,00
01:40 11,510,2 920,0 1,3 0,001 005,6 0,00
01:45 11,510,2 920,4 1,3225 0,001 005,5 0,00
01:50 11,610,3 920,0 0,9 0,001 005,5 0,00
01:55 11,610,4 920,0 0,9 0,001 005,5 0,00
02:00 11,610,4 920,0 0,0 0,001 005,2 0,00
02:05 11,710,5 920,0 0,4 0,001 005,2 0,00
02:10 11,710,5 920,0 0,4 0,001 005,2 0,00
02:15 11,610,4 920,9 1,8203 0,001 005,2 0,00
02:20 11,610,3 920,9 1,8203 0,001 005,2 0,00
02:25 11,510,2 920,4 2,2180 0,001 005,2 0,00
02:30 11,610,4 921,3 2,7135 0,001 004,8 0,00
02:35 11,710,5 920,9 2,2135 0,001 004,8 0,00
02:40 11,810,5 920,9 2,2158 0,001 004,8 0,00
02:45 11,810,5 920,9 2,2158 0,001 005,2 0,00
02:50 11,810,5 921,3 3,1158 0,001 005,2 0,00
02:55 11,810,5 920,9 2,7203 0,251 005,2 0,00
03:00 11,810,5 920,9 3,1203 0,001 005,2 0,00
03:05 11,810,5 920,4 1,8180 0,001 005,2 0,00
03:10 11,810,7 930,4 1,3180 0,251 005,2 0,00
03:15 11,810,7 931,3 4,0203 0,251 005,2 0,00
03:20 11,710,6 930,9 4,0203 0,001 005,2 0,00
03:25 11,710,6 931,3 3,6203 0,001 005,2 0,00
03:30 11,710,6 930,9 2,7180 0,001 005,2 0,00
03:35 11,710,6 930,9 3,1180 0,001 005,2 0,00
03:40 11,710,8 940,4 1,8180 0,251 005,2 0,00
03:45 11,710,7 940,9 1,8180 0,761 005,1 0,00
03:50 11,610,6 940,0 0,9 0,001 005,1 0,00
03:55 11,410,5 940,0 1,8 0,001 005,1 0,00
04:00 11,410,5 940,4 1,3180 0,001 005,1 0,00
04:05 11,610,6 940,4 1,3180 0,001 005,1 0,00
04:10 11,610,7 940,4 1,8180 0,001 005,1 0,00
04:15 11,710,7 940,4 1,3180 0,001 005,1 0,00
04:20 11,710,7 940,0 1,3 0,001 005,1 0,00
04:25 11,710,8 940,4 2,2180 0,001 005,1 0,00
04:30 11,710,9 950,4 2,2180 0,001 005,1 0,00
04:35 11,710,9 950,4 1,8180 0,251 005,1 0,00
04:40 11,710,9 950,9 2,2180 0,251 005,1 0,00
04:45 11,811,0 950,9 2,7180 0,001 004,9 0,00
04:50 11,811,0 950,4 1,8203 0,001 004,9 0,00
04:55 11,710,9 950,4 2,2180 0,001 004,9 0,00
05:00 11,710,9 950,4 1,8180 0,001 004,8 0,00
05:05 11,710,9 950,4 2,2180 0,001 004,8 0,00
05:10 11,610,8 950,9 3,6180 0,001 004,8 0,00
05:15 11,610,8 950,4 2,2180 0,001 004,9 0,00
05:20 11,510,7 950,9 2,7203 0,001 004,9 0,00
05:25 11,410,7 950,4 2,7203 0,001 004,9 0,00
05:30 11,410,7 950,4 2,7203 0,001 005,0 0,00
05:35 11,410,5 940,9 2,2225 0,001 005,0 0,00
05:40 11,310,3 940,4 1,8203 0,001 005,0 0,00
05:45 11,210,2 941,8 3,1225 0,001 005,0 0,00
05:50 11,210,1 931,3 3,1225 0,001 005,0 0,00
05:55 11,210,1 930,9 2,2225 0,001 005,0 0,00
06:00 11,210,0 920,9 2,2225 0,001 004,9 0,00
06:05 11,210,0 920,4 1,8225 0,001 004,9 0,00
06:10 11,210,0 920,4 1,3225 0,001 004,9 0,00
06:15 11,39,9 910,4 1,8225 0,001 004,9 0,00
06:20 11,29,8 911,3 4,0248 0,001 004,9 0,00
06:25 11,39,9 911,3 3,1248 0,001 004,9 0,00
06:30 11,210,0 920,0 1,3 0,251 005,1 0,00
06:35 11,19,9 920,4 2,7203 0,001 005,1 0,00
06:40 11,09,7 920,9 2,7225 0,001 005,1 0,00
06:45 11,09,7 920,9 2,2203 0,001 005,0 0,01
06:50 11,09,7 920,4 1,8203 0,001 005,0 0,06
06:55 11,09,9 930,4 2,7203 0,001 005,0 0,06
07:00 11,09,9 930,9 2,7248 0,001 005,0 0,07
07:05 11,09,9 930,9 2,7225 0,001 005,0 0,011
07:10 11,110,0 930,4 1,3225 0,001 005,0 0,012
07:15 10,99,9 930,0 0,9 0,251 005,1 0,014
07:20 10,89,7 930,0 0,9 0,001 005,1 0,020
07:25 10,99,8 930,0 0,9 0,001 005,1 0,018
07:30 10,99,9 930,9 3,1225 0,001 005,1 0,019
07:35 11,09,7 921,3 4,0225 0,001 005,1 0,041